| time (UTC) | temp C | wind direction | speed KPH | gust KPH | rain 1hr cm | rain 24hr cm | rain mn cm | humidity % | barometer mb |
| 20260507164246 | 8 | 293 | 6.4 | 12.9 | 0.00 | 0.20 | 0.20 | 98 | 1019.4 |
| 20260507163229 | 8 | 23 | 6.4 | 14.5 | 0.00 | 0.20 | 0.20 | 97 | 1019.6 |
| 20260507162721 | 8 | 315 | 6.4 | 20.9 | 0.00 | 0.20 | 0.20 | 97 | 1020.0 |
| 20260507161655 | 8 | 248 | 6.4 | 17.7 | 0.00 | 0.20 | 0.20 | 98 | 1019.7 |
| 20260507161145 | 8 | 315 | 8.0 | 14.5 | 0.03 | 0.20 | 0.20 | 98 | 1019.9 |
| 20260507160639 | 9 | 0 | 3.2 | 14.5 | 0.05 | 0.20 | 0.20 | 98 | 1019.6 |
| 20260507160125 | 9 | 270 | 4.8 | 12.9 | 0.10 | 0.20 | 0.20 | 98 | 1019.4 |
| 20260507154555 | 9 | 45 | 6.4 | 11.3 | 0.13 | 0.20 | 0.20 | 98 | 1019.6 |
| 20260507154047 | 10 | 315 | 1.6 | 11.3 | 0.13 | 0.20 | 0.20 | 98 | 1019.9 |
| 20260507153534 | 10 | 45 | 6.4 | 11.3 | 0.15 | 0.20 | 0.20 | 98 | 1019.7 |
| 20260507153024 | 10 | 293 | 3.2 | 9.7 | 0.15 | 0.20 | 0.20 | 98 | 1019.9 |
| 20260507152513 | 10 | 293 | 0.0 | 12.9 | 0.18 | 0.20 | 0.20 | 98 | 1020.0 |
| 20260507152004 | 9 | 23 | 3.2 | 12.9 | 0.18 | 0.20 | 0.20 | 97 | 1019.7 |
| 20260507150944 | 10 | 0 | 4.8 | 17.7 | 0.18 | 0.18 | 0.18 | 97 | 1019.6 |
| 20260507150433 | 10 | 0 | 1.6 | 24.1 | 0.15 | 0.15 | 0.15 | 98 | 1019.5 |
| 20260507145923 | 10 | 203 | 4.8 | 24.1 | 0.13 | 0.13 | 0.13 | 97 | 1018.8 |
| 20260507144906 | 10 | 68 | 6.4 | 33.8 | 0.10 | 0.10 | 0.10 | 97 | 1018.7 |
| 20260507144353 | 10 | 270 | 6.4 | 17.7 | 0.10 | 0.10 | 0.10 | 97 | 1018.9 |
| 20260507143843 | 10 | 293 | 6.4 | 17.7 | 0.05 | 0.05 | 0.05 | 97 | 1018.8 |
| 20260507142823 | 11 | 293 | 6.4 | 17.7 | 0.05 | 0.05 | 0.05 | 97 | 1018.7 |
| 20260507142316 | 11 | 270 | 6.4 | 17.7 | 0.03 | 0.03 | 0.03 | 96 | 1018.7 |
| 20260507141252 | 11 | 338 | 6.4 | 17.7 | 0.03 | 0.03 | 0.03 | 95 | 1018.7 |
| 20260507140742 | 11 | 23 | 3.2 | 12.9 | 0.00 | 0.00 | 0.00 | 95 | 1018.6 |
| 20260507140238 | 11 | 293 | 6.4 | 22.5 | 0.00 | 0.00 | 0.00 | 95 | 1018.6 |
| 20260507135724 | 11 | 315 | 6.4 | 22.5 | 0.00 | 0.00 | 0.00 | 95 | 1018.6 |
| 20260507135212 | 11 | 23 | 12.9 | 22.5 | 0.00 | 0.00 | 0.00 | 95 | 1018.3 |
| 20260507134701 | 11 | 338 | 4.8 | 17.7 | 0.00 | 0.00 | 0.00 | 95 | 1018.3 |
| 20260507134151 | 11 | 315 | 6.4 | 17.7 | 0.00 | 0.00 | 0.00 | 94 | 1018.3 |
| 20260507133641 | 12 | 23 | 3.2 | 17.7 | 0.00 | 0.00 | 0.00 | 94 | 1018.5 |
| 20260507133134 | 12 | 23 | 4.8 | 17.7 | 0.00 | 0.00 | 0.00 | 94 | 1018.2 |
| 20260507132621 | 12 | 45 | 4.8 | 32.2 | 0.00 | 0.00 | 0.00 | 93 | 1018.2 |
| 20260507132111 | 12 | 270 | 9.7 | 33.8 | 0.00 | 0.00 | 0.00 | 93 | 1018.0 |
| 20260507131051 | 12 | 315 | 8.0 | 25.7 | 0.00 | 0.00 | 0.00 | 95 | 1017.8 |
| 20260507130544 | 13 | 293 | 8.0 | 22.5 | 0.00 | 0.00 | 0.00 | 96 | 1017.2 |
| 20260507130030 | 13 | 315 | 3.2 | 14.5 | 0.00 | 0.00 | 0.00 | 96 | 1017.1 |
| 20260507125532 | 13 | 338 | 3.2 | 14.5 | 0.00 | 0.00 | 0.00 | 95 | 1017.4 |
| 20260507124518 | 15 | 158 | 6.4 | 25.7 | 0.00 | 0.00 | 0.00 | 90 | 1017.5 |
| 20260507123953 | 15 | 293 | 3.2 | 11.3 | 0.00 | 0.00 | 0.00 | 85 | 1016.7 |
| 20260507123439 | 15 | 293 | 1.6 | 11.3 | 0.00 | 0.00 | 0.00 | 85 | 1016.8 |
| 20260507122420 | 14 | 315 | 0.0 | 3.2 | 0.00 | 0.00 | 0.00 | 91 | 1016.6 |
| 20260507121402 | 14 | 338 | 0.0 | 3.2 | 0.00 | 0.00 | 0.00 | 89 | 1016.4 |
| 20260507120338 | 14 | 315 | 0.0 | 3.2 | 0.00 | 0.00 | 0.00 | 91 | 1015.9 |
| 20260507115828 | 13 | 293 | 0.0 | 3.2 | 0.00 | 0.00 | 0.00 | 91 | 1016.0 |
| 20260507115318 | 13 | 315 | 3.2 | 6.4 | 0.00 | 0.00 | 0.00 | 92 | 1015.9 |
| 20260507114258 | 13 | 315 | 3.2 | 6.4 | 0.00 | 0.00 | 0.00 | 94 | 1015.7 |
| 20260507113748 | 12 | 315 | 3.2 | 6.4 | 0.00 | 0.00 | 0.00 | 95 | 1016.3 |
| 20260507112728 | 12 | 315 | 3.2 | 6.4 | 0.00 | 0.00 | 0.00 | 96 | 1015.6 |
| 20260507112220 | 12 | 315 | 3.2 | 3.2 | 0.00 | 0.00 | 0.00 | 96 | 1015.7 |
| 20260507111708 | 11 | 315 | 1.6 | 3.2 | 0.00 | 0.00 | 0.00 | 97 | 1015.7 |
| 20260507111202 | 12 | 315 | 3.2 | 3.2 | 0.00 | 0.00 | 0.00 | 97 | 1015.4 |
| 20260507110647 | 11 | 315 | 3.2 | 3.2 | 0.00 | 0.00 | 0.00 | 97 | 1015.3 |
| 20260507110137 | 10 | 315 | 3.2 | 3.2 | 0.00 | 0.00 | 0.00 | 96 | 1015.0 |
| 20260507105629 | 10 | 68 | 1.6 | 3.2 | 0.00 | 0.00 | 0.00 | 96 | 1015.1 |
| 20260507105117 | 10 | 315 | 1.6 | 3.2 | 0.00 | 0.00 | 0.00 | 94 | 1014.6 |
| 20260507104607 | 11 | 270 | 0.0 | 6.4 | 0.00 | 0.00 | 0.00 | 94 | 1014.6 |
| 20260507104056 | 10 | 315 | 3.2 | 6.4 | 0.00 | 0.00 | 0.00 | 93 | 1014.4 |
| 20260507103546 | 8 | 315 | 1.6 | 6.4 | 0.00 | 0.00 | 0.00 | 92 | 1014.4 |
| 20260507103039 | 8 | 338 | 1.6 | 6.4 | 0.00 | 0.00 | 0.00 | 91 | 1014.4 |
| 20260507102526 | 8 | 315 | 3.2 | 6.4 | 0.00 | 0.00 | 0.00 | 90 | 1014.0 |
| 20260507102015 | 8 | 0 | 3.2 | 9.7 | 0.00 | 0.00 | 0.00 | 88 | 1014.2 |
| 20260507100448 | 8 | 45 | 0.0 | 6.4 | 0.00 | 0.00 | 0.00 | 84 | 1013.5 |
| 20260507095936 | 8 | 338 | 3.2 | 6.4 | 0.00 | 0.00 | 0.00 | 84 | 1012.6 |
| 20260507094915 | 8 | 338 | 1.6 | 9.7 | 0.00 | 0.00 | 0.00 | 82 | 1012.9 |
| 20260507094414 | 8 | 0 | 6.4 | 9.7 | 0.00 | 0.00 | 0.00 | 79 | 1012.6 |
| 20260507093858 | 8 | 135 | 3.2 | 9.7 | 0.00 | 0.00 | 0.00 | 79 | 1012.4 |
| 20260507093344 | 8 | 0 | 4.8 | 11.3 | 0.00 | 0.00 | 0.00 | 78 | 1012.2 |
| 20260507092834 | 8 | 293 | 3.2 | 11.3 | 0.00 | 0.00 | 0.00 | 78 | 1012.4 |
| 20260507091814 | 8 | 68 | 3.2 | 6.4 | 0.00 | 0.00 | 0.00 | 76 | 1012.1 |
| 20260507091306 | 8 | 90 | 4.8 | 6.4 | 0.00 | 0.00 | 0.00 | 73 | 1012.1 |
| 20260507090807 | 8 | 68 | 3.2 | 9.7 | 0.00 | 0.00 | 0.00 | 76 | 1011.9 |
| 20260507090248 | 8 | 338 | 3.2 | 11.3 | 0.00 | 0.00 | 0.00 | 75 | 1011.7 |
| 20260507085733 | 8 | 68 | 8.0 | 11.3 | 0.00 | 0.00 | 0.00 | 76 | 1011.9 |
| 20260507084716 | 8 | 270 | 3.2 | 11.3 | 0.00 | 0.00 | 0.00 | 74 | 1011.8 |
| 20260507084203 | 8 | 23 | 3.2 | 11.3 | 0.00 | 0.00 | 0.00 | 72 | 1011.7 |
| 20260507083652 | 7 | 23 | 4.8 | 9.7 | 0.00 | 0.00 | 0.00 | 81 | 1011.5 |
| 20260507081612 | 8 | 23 | 4.8 | 9.7 | 0.00 | 0.00 | 0.00 | 76 | 1011.3 |
| 20260507081103 | 8 | 225 | 1.6 | 11.3 | 0.00 | 0.00 | 0.00 | 77 | 1011.4 |
| 20260507080552 | 8 | 23 | 3.2 | 11.3 | 0.00 | 0.00 | 0.00 | 71 | 1012.1 |
| 20260507080054 | 8 | 68 | 6.4 | 9.7 | 0.00 | 0.00 | 0.00 | 74 | 1011.7 |
| 20260507075534 | 8 | 315 | 4.8 | 9.7 | 0.00 | 0.00 | 0.00 | 77 | 1012.2 |
| 20260507074001 | 8 | 68 | 3.2 | 11.3 | 0.00 | 0.00 | 0.00 | 76 | 1012.3 |
| 20260507073451 | 8 | 135 | 3.2 | 9.7 | 0.00 | 0.00 | 0.00 | 79 | 1012.1 |
| 20260507072431 | 8 | 293 | 3.2 | 9.7 | 0.00 | 0.00 | 0.00 | 80 | 1012.6 |
| 20260507071920 | 7 | 23 | 3.2 | 6.4 | 0.00 | 0.00 | 0.00 | 77 | 1012.6 |
| 20260507071410 | 7 | 23 | 4.8 | 9.7 | 0.00 | 0.00 | 0.00 | 80 | 1012.8 |
| 20260507070900 | 7 | 23 | 0.0 | 9.7 | 0.00 | 0.00 | 0.00 | 81 | 1012.9 |
| 20260507070353 | 7 | 338 | 3.2 | 6.4 | 0.00 | 0.00 | 0.00 | 80 | 1012.8 |
| 20260507065840 | 8 | 293 | 3.2 | 6.4 | 0.00 | 0.00 | 0.00 | 81 | 1013.0 |
| 20260507064820 | 9 | 338 | 0.0 | 9.7 | 0.00 | 0.00 | 0.00 | 77 | 1012.9 |
| 20260507064309 | 8 | 23 | 6.4 | 6.4 | 0.00 | 0.00 | 0.00 | 79 | 1012.9 |
| 20260507063803 | 8 | 23 | 3.2 | 9.7 | 0.00 | 0.00 | 0.00 | 74 | 1012.9 |
| 20260507063249 | 8 | 315 | 3.2 | 9.7 | 0.00 | 0.00 | 0.00 | 78 | 1013.0 |
| 20260507062739 | 8 | 23 | 4.8 | 9.7 | 0.00 | 0.00 | 0.00 | 81 | 1012.8 |
| 20260507062228 | 8 | 23 | 3.2 | 6.4 | 0.00 | 0.00 | 0.00 | 79 | 1013.1 |
| 20260507061719 | 8 | 45 | 3.2 | 9.7 | 0.00 | 0.00 | 0.00 | 79 | 1013.2 |
| 20260507061212 | 8 | 23 | 6.4 | 9.7 | 0.00 | 0.00 | 0.00 | 78 | 1012.9 |
| 20260507060149 | 8 | 90 | 3.2 | 9.7 | 0.00 | 0.00 | 0.00 | 78 | 1012.8 |
| 20260507055639 | 8 | 293 | 3.2 | 9.7 | 0.00 | 0.00 | 0.00 | 81 | 1013.2 |
| 20260507055128 | 8 | 0 | 3.2 | 11.3 | 0.00 | 0.00 | 0.00 | 80 | 1013.2 |
| 20260507054621 | 9 | 0 | 1.6 | 11.3 | 0.00 | 0.00 | 0.00 | 79 | 1012.8 |
| 20260507054108 | 9 | 23 | 6.4 | 9.7 | 0.00 | 0.00 | 0.00 | 77 | 1013.2 |
| 20260507053557 | 9 | 315 | 4.8 | 9.7 | 0.00 | 0.00 | 0.00 | 77 | 1013.5 |
| 20260507053054 | 9 | 270 | 3.2 | 9.7 | 0.00 | 0.00 | 0.00 | 81 | 1013.6 |
| 20260507052539 | 9 | 293 | 4.8 | 9.7 | 0.00 | 0.00 | 0.00 | 79 | 1013.3 |
| 20260507052033 | 10 | 45 | 3.2 | 0.0 | 0.00 | 0.00 | 0.00 | 74 | 1013.6 |
| 20260507051741 | 10 | 315 | 1.6 | 0.0 | 0.00 | 0.00 | 0.00 | 71 | 1013.6 |
| 20260507051140 | 9 | 293 | 4.8 | 11.3 | 0.00 | 0.00 | 0.00 | 73 | 1013.9 |
| 20260507050630 | 9 | 90 | 1.6 | 6.4 | 0.00 | 0.00 | 0.00 | 77 | 1013.7 |
| 20260507045609 | 9 | 270 | 0.0 | 6.4 | 0.00 | 0.00 | 0.00 | 78 | 1014.2 |
| 20260507045103 | 9 | 0 | 3.2 | 6.4 | 0.00 | 0.00 | 0.00 | 77 | 1013.9 |
| 20260507044550 | 9 | 293 | 3.2 | 6.4 | 0.00 | 0.00 | 0.00 | 75 | 1013.8 |
| 20260507044039 | 9 | 270 | 3.2 | 6.4 | 0.00 | 0.00 | 0.00 | 80 | 1014.3 |
| 20260507043529 | 8 | 270 | 0.0 | 6.4 | 0.00 | 0.00 | 0.00 | 77 | 1014.5 |
| 20260507043020 | 9 | 293 | 3.2 | 6.4 | 0.00 | 0.00 | 0.00 | 82 | 1014.4 |
| 20260507042525 | 10 | 113 | 3.2 | 6.4 | 0.00 | 0.00 | 0.00 | 78 | 1014.5 |
| 20260507041449 | 10 | 338 | 0.0 | 9.7 | 0.00 | 0.00 | 0.00 | 79 | 1014.5 |
| 20260507040938 | 10 | 45 | 4.8 | 12.9 | 0.00 | 0.00 | 0.00 | 73 | 1014.6 |
| 20260507035922 | 10 | 23 | 6.4 | 6.4 | 0.00 | 0.00 | 0.00 | 78 | 1014.6 |
| 20260507034858 | 9 | 338 | 3.2 | 11.3 | 0.00 | 0.00 | 0.00 | 77 | 1014.5 |
| 20260507034348 | 9 | 338 | 3.2 | 11.3 | 0.00 | 0.00 | 0.00 | 80 | 1014.5 |
| 20260507033337 | 8 | 45 | 3.2 | 9.7 | 0.00 | 0.00 | 0.00 | 84 | 1014.4 |
| 20260507032830 | 8 | 45 | 0.0 | 3.2 | 0.00 | 0.00 | 0.00 | 85 | 1014.5 |
| 20260507032308 | 8 | 0 | 3.2 | 6.4 | 0.00 | 0.00 | 0.00 | 81 | 1014.7 |
| 20260507031757 | 9 | 68 | 0.0 | 11.3 | 0.00 | 0.00 | 0.00 | 81 | 1014.6 |
| 20260507031247 | 9 | 0 | 3.2 | 11.3 | 0.00 | 0.00 | 0.00 | 80 | 1014.7 |
| 20260507030740 | 8 | 158 | 0.0 | 6.4 | 0.00 | 0.00 | 0.00 | 81 | 1014.5 |
| 20260507030226 | 10 | 135 | 1.6 | 6.4 | 0.00 | 0.00 | 0.00 | 79 | 1014.9 |
| 20260507025717 | 9 | 23 | 3.2 | 9.7 | 0.00 | 0.00 | 0.00 | 78 | 1015.0 |
| 20260507025206 | 10 | 315 | 1.6 | 9.7 | 0.00 | 0.00 | 0.00 | 78 | 1014.9 |
| 20260507024656 | 10 | 23 | 1.6 | 6.4 | 0.00 | 0.00 | 0.00 | 77 | 1015.1 |
| 20260507023649 | 9 | 23 | 6.4 | 9.7 | 0.00 | 0.00 | 0.00 | 77 | 1015.3 |
| 20260507023126 | 10 | 338 | 4.8 | 9.7 | 0.00 | 0.00 | 0.00 | 77 | 1015.4 |
| 20260507022615 | 10 | 0 | 6.4 | 9.7 | 0.00 | 0.00 | 0.00 | 76 | 1015.7 |
| 20260507022106 | 9 | 23 | 3.2 | 6.4 | 0.00 | 0.00 | 0.00 | 82 | 1015.8 |
| 20260507021045 | 9 | 315 | 3.2 | 9.7 | 0.00 | 0.00 | 0.00 | 83 | 1015.9 |
| 20260507020536 | 9 | 315 | 3.2 | 6.4 | 0.00 | 0.00 | 0.00 | 83 | 1016.0 |
| 20260507020027 | 9 | 68 | 0.0 | 6.4 | 0.00 | 0.00 | 0.00 | 82 | 1015.9 |
| 20260507015515 | 10 | 315 | 3.2 | 3.2 | 0.00 | 0.00 | 0.00 | 78 | 1015.9 |
| 20260507015008 | 10 | 113 | 1.6 | 6.4 | 0.00 | 0.00 | 0.00 | 79 | 1016.1 |
| 20260507014454 | 11 | 135 | 3.2 | 6.4 | 0.00 | 0.00 | 0.00 | 72 | 1015.9 |
| 20260507013945 | 10 | 338 | 3.2 | 11.3 | 0.00 | 0.00 | 0.00 | 80 | 1015.8 |
| 20260507013437 | 11 | 0 | 3.2 | 11.3 | 0.00 | 0.00 | 0.00 | 78 | 1016.1 |
| 20260507012925 | 10 | 45 | 6.4 | 6.4 | 0.00 | 0.00 | 0.00 | 75 | 1016.3 |
| 20260507012414 | 10 | 315 | 3.2 | 6.4 | 0.00 | 0.00 | 0.00 | 85 | 1016.3 |
| 20260507011904 | 10 | 0 | 3.2 | 6.4 | 0.00 | 0.00 | 0.00 | 83 | 1016.5 |
| 20260507011353 | 9 | 338 | 4.8 | 6.4 | 0.00 | 0.00 | 0.00 | 84 | 1016.3 |
| 20260507010854 | 9 | 338 | 0.0 | 6.4 | 0.00 | 0.00 | 0.00 | 84 | 1016.5 |
| 20260507010334 | 10 | 315 | 1.6 | 6.4 | 0.00 | 0.00 | 0.00 | 84 | 1016.3 |
| 20260507005823 | 10 | 338 | 3.2 | 6.4 | 0.00 | 0.00 | 0.00 | 84 | 1016.3 |
| 20260507004256 | 11 | 68 | 1.6 | 6.4 | 0.00 | 0.00 | 0.00 | 79 | 1016.3 |
| 20260507003233 | 11 | 45 | 4.8 | 9.7 | 0.00 | 0.00 | 0.00 | 76 | 1015.8 |
| 20260507002723 | 11 | 23 | 6.4 | 9.7 | 0.00 | 0.00 | 0.00 | 74 | 1016.0 |
| 20260507002212 | 10 | 23 | 4.8 | 11.3 | 0.00 | 0.00 | 0.00 | 79 | 1016.0 |
| 20260507001706 | 11 | 23 | 4.8 | 11.3 | 0.00 | 0.00 | 0.00 | 80 | 1015.8 |
| 20260507001153 | 11 | 45 | 3.2 | 9.7 | 0.00 | 0.00 | 0.00 | 80 | 1016.0 |
| 20260507000654 | 11 | 23 | 6.4 | 9.7 | 0.00 | 0.00 | 0.00 | 78 | 1016.0 |
| 20260507000131 | 10 | 0 | 3.2 | 6.4 | 0.00 | 0.00 | 0.00 | 82 | 1016.1 |
| 20260506235623 | 11 | 23 | 3.2 | 11.3 | 0.00 | 0.00 | 0.00 | 82 | 1015.9 |
| 20260506234605 | 11 | 0 | 3.2 | 6.4 | 0.00 | 0.00 | 0.00 | 78 | 1015.9 |
| 20260506234051 | 11 | 23 | 3.2 | 6.4 | 0.00 | 0.00 | 0.00 | 82 | 1015.9 |
| 20260506233544 | 11 | 0 | 3.2 | 6.4 | 0.00 | 0.00 | 0.00 | 82 | 1015.9 |
| 20260506233032 | 11 | 23 | 3.2 | 6.4 | 0.00 | 0.00 | 0.00 | 81 | 1015.8 |
| 20260506232524 | 12 | 315 | 0.0 | 6.4 | 0.00 | 0.00 | 0.00 | 81 | 1015.8 |
| 20260506232012 | 11 | 45 | 3.2 | 6.4 | 0.00 | 0.00 | 0.00 | 78 | 1015.4 |
| 20260506231501 | 12 | 45 | 3.2 | 6.4 | 0.00 | 0.00 | 0.00 | 80 | 1015.4 |
| 20260506230952 | 12 | 23 | 1.6 | 6.4 | 0.00 | 0.00 | 0.00 | 78 | 1015.4 |
| 20260506230441 | 12 | 23 | 3.2 | 6.4 | 0.00 | 0.00 | 0.00 | 81 | 1015.3 |
| 20260506225934 | 12 | 45 | 4.8 | 9.7 | 0.00 | 0.00 | 0.00 | 77 | 1015.6 |
| 20260506225420 | 12 | 315 | 6.4 | 9.7 | 0.00 | 0.00 | 0.00 | 76 | 1015.1 |
| 20260506224911 | 12 | 0 | 3.2 | 11.3 | 0.00 | 0.00 | 0.00 | 82 | 1015.2 |
| 20260506224400 | 13 | 315 | 3.2 | 11.3 | 0.00 | 0.00 | 0.00 | 79 | 1015.3 |
| 20260506223850 | 13 | 23 | 3.2 | 6.4 | 0.00 | 0.00 | 0.00 | 80 | 1015.4 |
| 20260506223343 | 13 | 23 | 3.2 | 6.4 | 0.00 | 0.00 | 0.00 | 81 | 1015.2 |
| 20260506222318 | 13 | 293 | 1.6 | 6.4 | 0.00 | 0.00 | 0.00 | 80 | 1014.7 |
| 20260506221808 | 13 | 68 | 3.2 | 6.4 | 0.00 | 0.00 | 0.00 | 77 | 1014.7 |
| 20260506221300 | 14 | 0 | 3.2 | 6.4 | 0.00 | 0.00 | 0.00 | 79 | 1014.9 |
| 20260506220238 | 15 | 315 | 3.2 | 6.4 | 0.00 | 0.00 | 0.00 | 77 | 1014.5 |
| 20260506215728 | 15 | 0 | 3.2 | 6.4 | 0.00 | 0.00 | 0.00 | 81 | 1014.6 |
| 20260506215218 | 15 | 315 | 1.6 | 6.4 | 0.00 | 0.00 | 0.00 | 83 | 1014.6 |
| 20260506214708 | 15 | 338 | 1.6 | 6.4 | 0.00 | 0.00 | 0.00 | 85 | 1014.7 |
| 20260506214214 | 15 | 315 | 3.2 | 6.4 | 0.00 | 0.00 | 0.00 | 86 | 1014.9 |
| 20260506213648 | 15 | 293 | 0.0 | 6.4 | 0.00 | 0.00 | 0.00 | 87 | 1014.4 |
| 20260506213137 | 15 | 293 | 0.0 | 6.4 | 0.00 | 0.00 | 0.00 | 86 | 1014.5 |
| 20260506212628 | 16 | 45 | 3.2 | 3.2 | 0.00 | 0.00 | 0.00 | 84 | 1014.4 |
| 20260506212117 | 16 | 293 | 3.2 | 3.2 | 0.00 | 0.00 | 0.00 | 86 | 1014.5 |
| 20260506211611 | 16 | 293 | 1.6 | 3.2 | 0.00 | 0.00 | 0.00 | 84 | 1014.0 |
| 20260506211058 | 17 | 293 | 0.0 | 3.2 | 0.00 | 0.00 | 0.00 | 84 | 1014.4 |
| 20260506210547 | 17 | 338 | 3.2 | 3.2 | 0.00 | 0.00 | 0.00 | 83 | 1014.2 |
| 20260506210037 | 17 | 293 | 1.6 | 3.2 | 0.00 | 0.00 | 0.00 | 83 | 1014.0 |
| 20260506205527 | 17 | 293 | 0.0 | 3.2 | 0.00 | 0.00 | 0.00 | 82 | 1014.0 |
| 20260506205020 | 17 | 293 | 1.6 | 3.2 | 0.00 | 0.00 | 0.00 | 81 | 1013.7 |
| 20260506203447 | 18 | 293 | 3.2 | 3.2 | 0.00 | 0.00 | 0.00 | 80 | 1014.0 |
| 20260506202936 | 19 | 293 | 1.6 | 3.2 | 0.00 | 0.00 | 0.00 | 78 | 1013.9 |
| 20260506202429 | 19 | 270 | 0.0 | 3.2 | 0.00 | 0.00 | 0.00 | 76 | 1013.6 |
| 20260506201915 | 20 | 293 | 1.6 | 3.2 | 0.00 | 0.00 | 0.00 | 73 | 1013.8 |
| 20260506201405 | 20 | 315 | 1.6 | 3.2 | 0.00 | 0.00 | 0.00 | 72 | 1013.8 |
| 20260506200900 | 21 | 293 | 1.6 | 6.4 | 0.00 | 0.00 | 0.00 | 65 | 1013.7 |
| 20260506200345 | 22 | 293 | 3.2 | 6.4 | 0.00 | 0.00 | 0.00 | 65 | 1013.8 |
| 20260506195837 | 21 | 315 | 3.2 | 6.4 | 0.00 | 0.00 | 0.00 | 67 | 1014.0 |
| 20260506195325 | 22 | 315 | 3.2 | 6.4 | 0.00 | 0.00 | 0.00 | 66 | 1014.2 |
| 20260506194815 | 21 | 293 | 1.6 | 3.2 | 0.00 | 0.00 | 0.00 | 68 | 1013.9 |
| 20260506194319 | 22 | 315 | 1.6 | 3.2 | 0.00 | 0.00 | 0.00 | 67 | 1013.8 |
| 20260506193754 | 23 | 293 | 0.0 | 3.2 | 0.00 | 0.00 | 0.00 | 64 | 1014.0 |
| 20260506193301 | 23 | 293 | 0.0 | 3.2 | 0.00 | 0.00 | 0.00 | 61 | 1014.0 |
| 20260506192736 | 23 | 270 | 0.0 | 3.2 | 0.00 | 0.00 | 0.00 | 62 | 1014.0 |
| 20260506192224 | 22 | 270 | 0.0 | 6.4 | 0.00 | 0.00 | 0.00 | 63 | 1013.9 |
| 20260506191715 | 22 | 293 | 3.2 | 6.4 | 0.00 | 0.00 | 0.00 | 63 | 1013.9 |
| 20260506191204 | 23 | 293 | 3.2 | 6.4 | 0.00 | 0.00 | 0.00 | 60 | 1013.7 |
| 20260506185633 | 27 | 270 | 1.6 | 3.2 | 0.00 | 0.00 | 0.00 | 51 | 1013.9 |
| 20260506185124 | 27 | 293 | 1.6 | 11.3 | 0.00 | 0.00 | 0.00 | 44 | 1013.7 |
| 20260506184613 | 27 | 270 | 0.0 | 11.3 | 0.00 | 0.00 | 0.00 | 49 | 1013.7 |
| 20260506184119 | 26 | 90 | 4.8 | 12.9 | 0.00 | 0.00 | 0.00 | 48 | 1013.9 |
| 20260506183552 | 26 | 180 | 3.2 | 12.9 | 0.00 | 0.00 | 0.00 | 48 | 1014.0 |
| 20260506183055 | 29 | 248 | 1.6 | 3.2 | 0.00 | 0.00 | 0.00 | 46 | 1013.9 |
| 20260506182552 | 28 | 293 | 0.0 | 3.2 | 0.00 | 0.00 | 0.00 | 44 | 1013.8 |
| 20260506182022 | 28 | 293 | 0.0 | 3.2 | 0.00 | 0.00 | 0.00 | 43 | 1013.9 |
| 20260506181016 | 26 | 248 | 3.2 | 17.7 | 0.00 | 0.00 | 0.00 | 53 | 1014.0 |
| 20260506180456 | 27 | 225 | 6.4 | 17.7 | 0.00 | 0.00 | 0.00 | 47 | 1013.8 |
| 20260506175944 | 28 | 248 | 0.0 | 11.3 | 0.00 | 0.00 | 0.00 | 41 | 1014.5 |
| 20260506175431 | 26 | 135 | 3.2 | 14.5 | 0.00 | 0.00 | 0.00 | 42 | 1014.3 |
| 20260506174938 | 27 | 203 | 6.4 | 14.5 | 0.00 | 0.00 | 0.00 | 39 | 1014.0 |
| 20260506174412 | 27 | 225 | 3.2 | 12.9 | 0.00 | 0.00 | 0.00 | 38 | 1014.2 |
| 20260506173904 | 28 | 158 | 3.2 | 12.9 | 0.00 | 0.00 | 0.00 | 36 | 1014.2 |
| 20260506172842 | 29 | 225 | 3.2 | 14.5 | 0.00 | 0.00 | 0.00 | 36 | 1014.3 |
| 20260506172334 | 31 | 293 | 1.6 | 9.7 | 0.00 | 0.00 | 0.00 | 18 | 1014.3 |
| 20260506171823 | 31 | 270 | 0.0 | 14.5 | 0.00 | 0.00 | 0.00 | 29 | 1014.2 |
| 20260506170800 | 31 | 293 | 0.0 | 3.2 | 0.00 | 0.00 | 0.00 | 33 | 1014.3 |
| 20260506170250 | 30 | 45 | 1.6 | 3.2 | 0.00 | 0.00 | 0.00 | 29 | 1014.5 |
| 20260506165744 | 30 | 293 | 0.0 | 6.4 | 0.00 | 0.00 | 0.00 | 28 | 1014.6 |
| 20260506165239 | 29 | 248 | 0.0 | 6.4 | 0.00 | 0.00 | 0.00 | 27 | 1014.7 |
| 20260506164720 | 28 | 90 | 3.2 | 11.3 | 0.00 | 0.00 | 0.00 | 30 | 1014.7 |